Francistown, Botswana

6:07 PM CAT on August 16, 2017 (GMT +0200)
Francistown

Weather History for FBFT - August, 2014

Change the Weather History Date:

Tuesday, August 19, 2014

  Actual Average Record
Temperature  
Mean Temperature 63 °F -  
Max Temperature 85 °F 82 °F 93 °F (2001)
Min Temperature 41 °F 52 °F 40 °F (2013)
Degree Days  
Heating Degree Days 2    
Growing Degree Days 13 (Base 50)    
Moisture  
Dew Point 33 °F    
Average Humidity 40    
Maximum Humidity 76    
Minimum Humidity 6    
Precipitation  
Precipitation 0.00 in - - ()
Sea Level Pressure  
Sea Level Pressure 30.17 in    
Wind  
Wind Speed 3 mph ()    
Max Wind Speed 10 mph    
Max Gust Speed -    
Visibility 6.0 miles    
Events      
Averages and records for this station are not official NWS values.
T = Trace of Precipitation, MM = Missing Value Source: Averaged Metar Reports

Daily Weather History Graph

Daily Weather History Graph

Search for Another Location

Airport or City:

Trip Planner

Search our weather history database for the weather conditions in past years. The results will help you decide how hot, cold, wet, or windy it might be!

Date:

Astronomy

Aug. 19, 2014 Rise Set
Actual Time 6:30 AM CAT 5:57 PM CAT
Civil Twilight 6:07 AM CAT 6:19 PM CAT
Nautical Twilight 5:41 AM CAT 6:46 PM CAT
Astronomical Twilight 5:15 AM CAT 7:12 PM CAT
Moon 1:39 AM CAT (8/19) 1:01 PM CAT (8/19)
Length of Visible Light 12h 12m
Length of Day
11h 27m
Waning Crescent, 31% of the Moon is Illuminated
Aug 19
Waning Crescent
Aug 25
New
Sep 2
First Quarter
Sep 9
Full
Sep 16
Last Quarter

Hourly Weather History & Observations

Time (CAT) Temp. Windchill Dew Point Humidity Pressure Visibility Wind Dir Wind Speed Gust Speed Precip Events Conditions
12:00 AM 48.2 °F - 37.4 °F 66% 30.21 in - Variable 1.2 mph - N/A   Clear
1:00 AM 48.2 °F - 35.6 °F 62% 30.21 in - Variable 1.2 mph - N/A   Clear
2:00 AM 45 °F - 36 °F 60%  in 6 mi North 4.6 mph - -  
2:00 AM 44.6 °F 42.2 °F 35.6 °F 71% 30.21 in - North 4.6 mph - N/A   Clear
3:00 AM 44.6 °F 42.2 °F 33.8 °F 66% 30.18 in - North 4.6 mph - N/A   Clear
4:00 AM 42.8 °F 40.1 °F 33.8 °F 70% 30.18 in - North 4.6 mph - N/A   Clear
5:00 AM 44 °F - 35 °F 63%  in 6 mi North 2.3 mph - -  
5:00 AM 44.6 °F - 35.6 °F 71% 30.18 in - Variable 2.3 mph - N/A   Clear
6:00 AM 41.0 °F 39.0 °F 33.8 °F 76% 30.15 in - East 3.5 mph - N/A   Clear
7:00 AM 41.0 °F 37.1 °F 33.8 °F 76% 30.18 in - East 5.8 mph - N/A   Clear
8:00 AM 59 °F - 41 °F 40%  in 6 mi NNE 5.8 mph - -  
8:00 AM 59.0 °F - 41.0 °F 51% 30.21 in - NNE 5.8 mph - N/A   Clear
9:00 AM 69.8 °F - 42.8 °F 38% 30.21 in - ENE 3.5 mph - N/A   Clear
10:00 AM 75.2 °F - 41.0 °F 29% 30.24 in - SSE 6.9 mph - N/A   Clear
11:00 AM 80.6 °F - 35.6 °F 20% 30.18 in - SE 4.6 mph - N/A   Clear
12:00 PM 80.6 °F - 30.2 °F 16% 30.15 in - South 6.9 mph - N/A   Clear
1:00 PM 84.2 °F - 30.2 °F 14% 30.15 in - ENE 10.4 mph - N/A   Clear
2:00 PM 84 °F - 28 °F 6%  in 6 mi SW 3.5 mph - -  
2:00 PM 84.2 °F - 28.4 °F 13% 30.12 in - SSW 3.5 mph - N/A   Clear
3:00 PM 84.2 °F - 28.4 °F 13% 30.09 in - Calm Calm - N/A   Clear
4:00 PM 84.2 °F - 28.4 °F 13% 30.09 in - ESE 5.8 mph - N/A   Clear
5:00 PM 82 °F - 29 °F 7%  in 6 mi ESE 8.1 mph - -  
6:00 PM 75.2 °F - 28.4 °F 18% 30.12 in - East 8.1 mph - N/A   Clear
7:00 PM 69.8 °F - 26.6 °F 20% 30.12 in - Variable 2.3 mph - N/A   Clear
8:00 PM 57 °F - 28 °F 20%  in 6 mi ESE 3.5 mph - -  
8:00 PM 57.2 °F - 26.6 °F 31% 30.15 in - ESE 3.5 mph - N/A   Clear
9:00 PM 53.6 °F - 28.4 °F 38% 30.15 in - Calm Calm - N/A   Clear
10:00 PM 50.0 °F - 26.6 °F 40% 30.15 in - North 3.5 mph - N/A   Clear
11:00 PM 51.8 °F - 26.6 °F 38% 30.18 in - SSE 2.3 mph - N/A   Clear